Corsicana, TX

12:00 PM CDT on May 21, 2018 (GMT -0500)
Campbell-Corsicana Municipal

Weather History for KCRS - March, 2013

Change the Weather History Date:

Friday, March 15, 2013

  Actual Average (KTYR) Record (KTYR)
Temperature  
Mean Temperature 66 °F -  
Max Temperature 79 °F 64 °F 88 °F (1967)
Min Temperature 53 °F 46 °F 24 °F (1954)
Growing Degree Days 16 (Base 50)    
Moisture  
Dew Point 47 °F    
Average Humidity 56    
Maximum Humidity 86    
Minimum Humidity 28    
Precipitation  
Precipitation 0.00 in - - ()
Sea Level Pressure  
Sea Level Pressure 30.10 in    
Wind  
Wind Speed 13 mph (South)    
Max Wind Speed 24 mph    
Max Gust Speed 31 mph    
Visibility 10 miles    
Events      
Averages and records for this station are not official NWS values.
T = Trace of Precipitation, MM = Missing Value Source: NWS Daily Summary

Daily Weather History Graph

Daily Weather History Graph

Search for Another Location

Airport or City:

Astronomy

Mar. 15, 2013 Rise Set
Actual Time 7:35 AM CDT 7:33 PM CDT
Civil Twilight 7:11 AM CDT 7:58 PM CDT
Nautical Twilight 6:42 AM CDT 8:26 PM CDT
Astronomical Twilight 6:14 AM CDT 8:55 PM CDT
Moon 9:41 AM CDT (3/15) 11:31 PM CDT (3/15)
Length of Visible Light 12h 47m
Length of Day
11h 58m
Waxing Crescent, 15% of the Moon is Illuminated
Mar 15
Waxing Crescent
Mar 19
First Quarter
Mar 27
Full
Apr 2
Last Quarter
Apr 10
New

Hourly Weather History & Observations

Time (CDT) Temp. Dew Point Humidity Pressure Visibility Wind Dir Wind Speed Gust Speed Precip Events Conditions
12:53 AM 61.0 °F 46.9 °F 60% 30.21 in 10.0 mi South 11.5 mph - N/A   Clear
1:53 AM 57.9 °F 48.0 °F 70% 30.21 in 10.0 mi South 10.4 mph - N/A   Clear
2:53 AM 57.0 °F 48.0 °F 72% 30.20 in 10.0 mi South 9.2 mph - N/A   Clear
3:53 AM 55.9 °F 48.9 °F 77% 30.19 in 10.0 mi South 11.5 mph - N/A   Clear
4:53 AM 55.9 °F 48.0 °F 75% 30.18 in 10.0 mi SSW 10.4 mph - N/A   Clear
5:53 AM 54.0 °F 48.0 °F 80% 30.18 in 10.0 mi South 10.4 mph - N/A   Clear
6:53 AM 53.1 °F 48.0 °F 83% 30.17 in 10.0 mi South 10.4 mph - N/A   Clear
7:53 AM 53.1 °F 48.9 °F 86% 30.18 in 10.0 mi South 9.2 mph - N/A   Clear
8:53 AM 57.0 °F 51.1 °F 81% 30.19 in 10.0 mi SSW 12.7 mph - N/A   Clear
9:53 AM 62.1 °F 52.0 °F 70% 30.19 in 10.0 mi SSW 17.3 mph - N/A   Clear
10:53 AM 66.9 °F 53.1 °F 61% 30.18 in 10.0 mi SSW 18.4 mph 26.5 mph N/A   Clear
11:53 AM 70.0 °F 50.0 °F 49% 30.16 in 10.0 mi SSW 19.6 mph - N/A   Clear
12:53 PM 73.9 °F 50.0 °F 43% 30.13 in 10.0 mi SSW 20.7 mph 27.6 mph N/A   Clear
1:53 PM 75.9 °F 50.0 °F 40% 30.10 in 10.0 mi South 19.6 mph 24.2 mph N/A   Clear
2:53 PM 78.1 °F 43.0 °F 29% 30.06 in 10.0 mi SSW 23.0 mph 31.1 mph N/A   Clear
3:53 PM 78.1 °F 43.0 °F 29% 30.04 in 10.0 mi SW 24.2 mph 29.9 mph N/A   Clear
4:53 PM 78.1 °F 42.1 °F 28% 30.01 in 10.0 mi SSW 18.4 mph 26.5 mph N/A   Clear
5:53 PM 78.1 °F 42.1 °F 28% 29.99 in 10.0 mi South 18.4 mph 27.6 mph N/A   Clear
6:53 PM 75.9 °F 41.0 °F 29% 29.98 in 10.0 mi South 12.7 mph - N/A   Clear
7:53 PM 70.0 °F 42.1 °F 36% 29.97 in 10.0 mi South 9.2 mph - N/A   Clear
8:53 PM 66.9 °F 44.1 °F 44% 29.97 in 10.0 mi South 9.2 mph - N/A   Clear
9:53 PM 64.0 °F 46.0 °F 52% 29.97 in 10.0 mi SSE 10.4 mph - N/A   Clear
10:53 PM 66.9 °F 48.9 °F 52% 29.97 in 10.0 mi South 12.7 mph - N/A   Clear
11:53 PM 64.9 °F 50.0 °F 58% 29.96 in 10.0 mi South 16.1 mph 24.2 mph N/A   Clear